Hourly Weather Roundup
Issued by NWS Central Illinois

Home | Current Version | Previous Version | Text Only | Print | Product List | Glossary On
Versions: 1 2 3 4 5 6 7 8 9 10 11 12 13 14 15 16 17 18 19 20 21 22 23 24 25 26 27 28 29 30 31 32 33 34 35 36 37 38 39 40 41 42 43 44 45 46 47 48 49 50
000
NZUS43 KILX 270110
HWRILX

AREA WEATHER ROUNDUP
NATIONAL WEATHER SERVICE, LINCOLN IL
800 PM CDT SUN MAR 26 2017


CITY           SKY/WX    TMP DP  RH WIND       PRES   REMARKS
BLOOMINGTON    CLOUDY    49  48  97 W12       29.92R FOG
CHAMPAIGN      CLOUDY    56  49  77 SW15      29.92R
DECATUR        CLOUDY    55  50  83 W6        29.93R
EFFINGHAM      CLOUDY    55  50  82 S5        29.96S
FLORA          PTCLDY    54  49  86 SW3       29.97R
GALESBURG      CLOUDY    49  47  93 W6        29.90S
JACKSONVILLE   CLOUDY    51  48  87 W6        29.94R
LACON          CLOUDY    49  48  95 SW9       29.90S
LAWRENCEVILLE  MOCLDY    58  50  75 W8        29.97R
LITCHFIELD     CLOUDY    54  50  87 CALM      29.94S
$$


CITY           SKY/WX    TMP DP  RH WIND       PRES   REMARKS
LINCOLN        CLOUDY    53  50  89 CALM      29.93R
MACOMB         CLOUDY    49  48  95 W7        29.95R
MATTOON        CLOUDY    55  50  83 SW7       29.93S
MT CARMEL AP   MOCLDY    57  48  73 W8        29.97R
OLNEY-NOBLE AP PTCLDY    52  52 100 CALM      29.96S
PARIS          CLOUDY    55  50  81 SW10      29.94R
PEORIA         CLOUDY    51  47  86 W7        29.92R
PONTIAC        CLOUDY    51  51  98 W10       29.91R
RANTOUL        CLOUDY    55  53  94 W9        29.91S
SPRINGFIELD    CLOUDY    54  49  83 W8        29.94R
TAYLORVILLE    MOCLDY    52  48  87 W6        29.95R
$$

...REGIONAL REPORTS...


CITY           SKY/WX    TMP DP  RH WIND       PRES   REMARKS
CHICAGO O`HARE DRIZZLE   56  51  84 SW8       29.85R
KANKAKEE       CLOUDY    53  49  86 CALM      29.90R
MOLINE         CLOUDY    51  46  83 W13       29.89R
MOUNT STERLING CLOUDY    49  45  86 W5        29.94R
MOUNT VERNON   CLOUDY    54  48  80 CALM      29.96R
PITTSFIELD     CLOUDY    53  48  84 NW6       29.95R
QUINCY         CLOUDY    50  45  83 W6        29.94R
ROCKFORD       CLOUDY    54  52  93 SW8       29.87S FOG
$$


CITY           SKY/WX    TMP DP  RH WIND       PRES   REMARKS
BURLINGTON     CLOUDY    49  47  93 NW5       29.91R
CEDAR RAPIDS   CLOUDY    46  46 100 W5        29.89R
DES MOINES     CLOUDY    47  43  86 NW6       29.92R
KIRKSVILLE     CLOUDY    49  44  83 SW3       29.94R
OTTUMWA        CLOUDY    47  46  97 NW3       29.92R
ST LOUIS       CLOUDY    58  49  72 N6        29.94R
$$


CITY           SKY/WX    TMP DP  RH WIND       PRES   REMARKS
TERRE HAUTE    CLOUDY    57  48  72 W14       29.95R
EVANSVILLE     CLEAR     60  46  59 W3        29.98R
INDIANAPOLIS   CLOUDY    57  49  74 SW14      29.92R
LAFAYETTE      CLOUDY    57  50  77 W16G23    29.90R
MADISON        CLOUDY    42  40  92 N7        29.86S
MILWAUKEE      CLOUDY    42  39  89 N5        29.85S
$$






USA.gov is the U.S. government's official web portal to all federal, state and local government web resources and services.